Location: ???????
(55.4362°N, 38.1183°E)
Time: 15:04:02
(UTC+00:00)

Oscar 11 - Pass Details

Date: 07 December 2021
Orbit: 611 x 625 km, 97.6° (Epoch: 25 January)

Event Time Altitude Azimuth Distance (km) Brightness Sun altitude
Rises 15:08:58 0° 209° (SSW) 2,902 11.2 -17.1°
Reaches altitude 10° 15:11:47 10° 229° (SW) 2,002 10.6 -17.5°
Maximum altitude 15:14:46 18° 272° (W) 1,551 10.1 -17.9°
Drops below altitude 10° 15:17:47 10° 316° (NW) 2,013 10.1 -18.3°
Sets 15:20:38 0° 335° (NNW) 2,925 10.7 -18.7°
